Portada
METAR-TAF:

METAR-TAF

Aeroports :

Batesville, Arkansas, Estats Units d'Amèrica

latitud: 35-44N, longitud: 091-39W, altitud: 141 m

Observació

L'informe es va fer fa 11 minuts, a les 22:56 UTC
Vent 5 kt amb direcció variable
Temperatura 27°C
Humitat 45%
Pressió 1018 hPa
Visibilitat: 16.1 km
Cel clar

METAR: KBVX 292256Z AUTO VRB05KT 10SM CLR 27/14 A3007 RMK AO2 SLP180 T02670139

Hora: 18:07 (23:07 UTC)


TAF: manca

Observacions i pronòstics meteorològics de més de 4000 aeroports (METAR i TAF).

Les estacions disponibles són els punts grocs i vermells al mapa.

Posi el ratolí al punt desitjat per veure el nom de l'estació.

Feu clic per veure les observacions i els pronòstics meteorològics.

Per canviar el mapa: feu clic els botons verds amb una creu de color negre per apropar; al botó verd amb un guió per allunyar la imatge; o en les fletxes verdes per a mapes adjacents.


METAR-TAF: